This is the latest recevied weather packets stored in our database for station/object E70ARA-3. If no packets are shown the sender has not sent any weather packets the latest 10 day(s).
| Time | Temp. | Humidity | Pressure | Rain* | Wind** | Luminosity | Snow |
|---|---|---|---|---|---|---|---|
| 1777721274 | 22.78° C | 27% | 1033 hPa | - | - | - | - |
| 1777720374 | 22.22° C | 22% | 1033.2 hPa | - | - | - | - |
| 1777719474 | 22.78° C | 21% | 1033.1 hPa | - | - | - | - |
| 1777718574 | 22.78° C | 20% | 1033.2 hPa | - | - | - | - |
| 1777717674 | 23.89° C | 19% | 1033.5 hPa | - | - | - | - |
| 1777716773 | 25.56° C | 16% | 1033.6 hPa | - | - | - | - |
| 1777715873 | 25.56° C | 19% | 1033.7 hPa | - | - | - | - |
| 1777714973 | 26.67° C | 16% | 1033.8 hPa | - | - | - | - |
| 1777714073 | 25° C | 17% | 1033.9 hPa | - | - | - | - |
| 1777713173 | 24.44° C | 20% | 1034 hPa | - | - | - | - |
| 1777712272 | 26.67° C | 20% | 1034 hPa | - | - | - | - |
| 1777711372 | 25° C | 20% | 1034.2 hPa | - | - | - | - |
| 1777710472 | 26.11° C | 22% | 1034.3 hPa | - | - | - | - |
| 1777709572 | 24.44° C | 29% | 1034.7 hPa | - | - | - | - |
| 1777708671 | 23.89° C | 26% | 1034.9 hPa | - | - | - | - |
| 1777707776 | 22.78° C | 28% | 1035 hPa | - | - | - | - |
| 1777706875 | 20.56° C | 30% | 1035.3 hPa | - | - | - | - |
| 1777705975 | 21.67° C | 32% | 1035.5 hPa | - | - | - | - |
| 1777705075 | 20° C | 31% | 1035.7 hPa | - | - | - | - |
| 1777704175 | 18.33° C | 33% | 1035.9 hPa | - | - | - | - |
| 1777703275 | 17.22° C | 36% | 1036 hPa | - | - | - | - |
| 1777702374 | 16.11° C | 39% | 1036.3 hPa | - | - | - | - |
| 1777701474 | 15° C | 40% | 1036.4 hPa | - | - | - | - |
| 1777700574 | 13.33° C | 45% | 1036.5 hPa | - | - | - | - |
| 1777699674 | 12.22° C | 50% | 1036.6 hPa | - | - | - | - |
* Rain since midnight (hover to see other rain measurements)
** Current wind speed in m/s (hover to see current wind gust speed)